ATLAS AGENA R/B, 27785

Orbit data source: Space-Track

ATLAS AGENA R/B, 27785 is space debris in GEO originally from a launch on Tue, 06 Aug 1968 UTC launched from the Air Force Eastern Test Range (AFETR). Debris objects in space refer to the collection of defunct objects orbiting the Earth. Examples of debris include non-operational satellites, rocket bodies, and fragments generated from explosions, collisions, or faulty payload assembly.

Loading next visibility...
Identifier
27785, 1968-063B
Orbit
GEO
Country
Flag of USUS
Related business
Manufacturer
LMSC
Mission
Spacecraft
Bus & Motor
AGENA D, Unknown motor
Mass
~555 kg wet, 555 kg dry
Launch date (UTC)
1968-08-06 (57 years ago)
Launch vehicle
Unknown
Launch site
Air Force Eastern Test Range (AFETR)
Object type
Payload
Rocket body
Debris
Shape & HBR
Cyl, 3.1 m
Radar Cross Section
8.306 m²

Expand to show TLE details & history
Last TLE update: 1 day ago

TLE from 1 day ago
0 ATLAS AGENA R/B
1 27785U 68063B   25260.01423813 -.00000305  00000-0  00000-0 0  9998
2 27785   5.0836 270.3332 1025732 256.6702  91.4352  1.01777268 23605
Epoch: 2025-09-17T00:20Z
TLE epoch observation values (Epoch: 2025-09-17T00:20:30.174Z)
Latitude
Longitude
-91.19047°
Altitude
35,916.19 km
Speed
3.05 km/s
True Right ascension
18h 00m 31s
True Declination
0° 00' 00"
Sunlit
Object was in daylight at epoch
Visualization orbit readout
Latitude
Unknown
Longitude
Unknown
Altitude
Unknown
Speed
Unknown
Apparent Right ascension
Unknown
Apparent Declination
Unknown
Sunlit
N/A
Visualization observer readout
Local Sidereal Time
19:56:55
Azimuth
Unknown
Elevation
Unknown
Doppler factor
Unknown
Orbital elements
Apogee altitude
39,653.176 km
Perigee altitude
31,088.522 km
Semi-major axis
41,748.986 km
Eccentricity
0.10257
Inclination
5.0836°
RAAN
270.3332°
Arg. of periapsis
256.6702°
True anomaly
103.06755°
Mean anomaly
91.4352°
Eccentric anomaly
97.26503°
Mean motion
0.25443 °/min
Orbital period
1,414.91 mins
BSTAR
0
Loading maneuver chart data...
Computing Atmospheric mass density...
Loading historical data...
Loading historical data...
Loading historical data...
Loading historical data...
Loading historical data...
Loading historical data...
Loading historical data...
Other satellites on launch #63 in the year 1968 (1968-08-06 UTC)

Documentation

Showing up to 5 results
|